Regional Weather Roundup
Issued by NWS

Home | Current Version | Previous Version | Text Only | Print | Product List | Glossary Off
Versions: 1 2 3 4 5 6 7 8 9 10 11 12 13 14 15 16 17 18 19 20 21 22 23 24 25 26 27 28 29 30 31 32 33 34 35 36 37 38 39 40 41 42 43 44 45 46 47 48 49 50

000
ASUS43 KLSX 060559
RWRMO

WEATHER SUMMARY FOR MISSOURI
NATIONAL WEATHER SERVICE SPRINGFIELD MO
100 AM CDT WED MAY 06 2015

NOTE: "FAIR" INDICATES FEW OR NO CLOUDS BELOW 12,000 FEET WITH NO
       SIGNIFICANT WEATHER AND/OR OBSTRUCTIONS TO VISIBILITY.
       CURRENT SKY AND/OR WEATHER CONDITIONS ARE NOT AVAILABLE FOR
       CHILLICOTHE AND FARMINGTON.

MOZ001>031-035>038-043-044-053-054-060700-
...NORTHERN AND WESTERN MISSOURI...

CITY           SKY/WX    TMP DP  RH WIND       PRES   REMARKS
KANSAS CTY INT CLOUDY    65  61  87 SE9       30.01F
6HR MIN TEMP:  63; 6HR MAX TEMP:  75; 6HR PCP:  0.35;

KANSAS C DTWN  MOCLDY    71  59  65 SE9       30.00F
6HR MIN TEMP:  65; 6HR MAX TEMP:  77; 6HR PCP:  0.34;

LEE`S SUMMIT   MOCLDY    69  57  65 SE10      30.02F
6HR MIN TEMP:  68; 6HR MAX TEMP:  74;

ST JOSEPH      CLOUDY    66  62  87 SE10      30.00F
6HR MIN TEMP:  65; 6HR MAX TEMP:  77; 6HR PCP:  0.07;

CHILLICOTHE      N/A     68  60  75 E5        30.06F
6HR MIN TEMP:  68; 6HR MAX TEMP:  76;

KIRKSVILLE     PTCLDY    65  59  81 S9        30.09F
6HR MIN TEMP:  65; 6HR MAX TEMP:  74;


$$
MOZ066>068-077>081-088>096-101>105-060700-
...SOUTHWEST MISSOURI...

CITY           SKY/WX    TMP DP  RH WIND       PRES   REMARKS
SPRINGFIELD    PTCLDY    68  52  56 SE14      30.07S
6HR MIN TEMP:  68; 6HR MAX TEMP:  78;

JOPLIN         CLOUDY    70  54  56 SE10G20   30.02F
6HR MIN TEMP:  69; 6HR MAX TEMP:  76;


$$
MOZ032>034-039>042-045>050-055>058-069>072-060700-
...CENTRAL MISSOURI...

CITY           SKY/WX    TMP DP  RH WIND       PRES   REMARKS
COLUMBIA       PTCLDY    66  59  78 E7        30.10F
6HR MIN TEMP:  65; 6HR MAX TEMP:  73;

JEFFERSON CITY PTCLDY    64  59  83 E5        30.09F
6HR MIN TEMP:  64; 6HR MAX TEMP:  76;

ROLLA          CLEAR     64  55  72 SE8       30.11S
6HR MIN TEMP:  64; 6HR MAX TEMP:  77;

SEDALIA        CLOUDY    67  56  67 SE8       30.07F
6HR MIN TEMP:  66; 6HR MAX TEMP:  72;

OSAGE BEACH    PTCLDY    66  54  63 SE3       30.08F

$$
MOZ051-052-059>065-060700-
...EAST CENTRAL MISSOURI...

CITY           SKY/WX    TMP DP  RH WIND       PRES   REMARKS
ST LOUIS INTL  PTCLDY    74  56  53 S7        30.14S
6HR MIN TEMP:  74; 6HR MAX TEMP:  81;

SPIRIT OF STL  PTCLDY    68  57  68 CALM      30.12S
6HR MIN TEMP:  66; 6HR MAX TEMP:  80;

ST CHARLES     CLEAR     64  57  78 E3        30.12S
6HR MIN TEMP:  63; 6HR MAX TEMP:  79;


$$
MOZ072>076-082>087-097>100-106>115-060700-
...SOUTH CENTRAL AND SOUTHEAST MISSOURI...

CITY           SKY/WX    TMP DP  RH WIND       PRES   REMARKS
CAPE GIRARDEAU CLEAR     63  55  75 SE6       30.15F
6HR MIN TEMP:  62; 6HR MAX TEMP:  76;

FARMINGTON     CLEAR     63  55  77 CALM      30.20R
6HR MIN TEMP:  63; 6HR MAX TEMP:  75;

POPLAR BLUFF   CLEAR     60  55  83 CALM      30.14S
6HR MIN TEMP:  60; 6HR MAX TEMP:  79;

WEST PLAINS    CLEAR     64  50  60 SE5       30.14S
6HR MIN TEMP:  62; 6HR MAX TEMP:  77;


$$


USA.gov is the U.S. government's official web portal to all federal, state and local government web resources and services.